Barcelona, Spain

11:20 AM CET on January 16, 2018 (GMT +0100)
El Prat

Weather History for LEBL - April, 2013

Change the Weather History Date:

Tuesday, April 23, 2013

  Actual Average Record
Temperature  
Mean Temperature 58 °F -  
Max Temperature 64 °F 67 °F 77 °F (2001)
Min Temperature 53 °F 54 °F 50 °F (1997)
Degree Days  
Heating Degree Days 6    
Growing Degree Days 8 (Base 50)    
Moisture  
Dew Point 46 °F    
Average Humidity 62    
Maximum Humidity 77    
Minimum Humidity 43    
Precipitation  
Precipitation 0.00 in 0.07 in - ()
Sea Level Pressure  
Sea Level Pressure 30.17 in    
Wind  
Wind Speed 6 mph ()    
Max Wind Speed 12 mph    
Max Gust Speed 22 mph    
Visibility 6.9 miles    
Events      
Averages and records for this station are not official NWS values.
T = Trace of Precipitation, MM = Missing Value Source: Averaged Metar Reports

Daily Weather History Graph

Daily Weather History Graph

Search for Another Location

Airport or City:

Trip Planner

Search our weather history database for the weather conditions in past years. The results will help you decide how hot, cold, wet, or windy it might be!

Date:

Astronomy

Apr. 23, 2013 Rise Set
Actual Time 7:00 AM CEST 8:40 PM CEST
Civil Twilight 6:30 AM CEST 9:09 PM CEST
Nautical Twilight 5:55 AM CEST 9:45 PM CEST
Astronomical Twilight 5:17 AM CEST 10:23 PM CEST
Moon 6:17 PM CEST (4/23) 5:21 AM CEST (4/23)
Length of Visible Light 14h 38m
Length of Day
13h 40m
Waxing Gibbous, 92% of the Moon is Illuminated
Apr 23
Waxing Gibbous
Apr 25
Full
May 2
Last Quarter
May 10
New
May 18
First Quarter

Hourly Weather History & Observations

Time (CEST) Temp. Dew Point Humidity Pressure Visibility Wind Dir Wind Speed Gust Speed Precip Events Conditions
12:00 AM 57.2 °F 48.2 °F 72% 30.12 in 6.2 mi SSW 4.6 mph - N/A   Partly Cloudy
12:30 AM 57.2 °F 48.2 °F 72% 30.12 in 6.2 mi SW 5.8 mph - N/A   Partly Cloudy
1:00 AM 55.4 °F 46.4 °F 72% 30.12 in 6.2 mi WNW 4.6 mph - N/A   Partly Cloudy
1:30 AM 55.4 °F 46.4 °F 72% 30.12 in 6.2 mi NW 4.6 mph - N/A   Partly Cloudy
2:00 AM 55 °F 45 °F 60% 30.13 in 19 mi NNW 4.6 mph - -   Scattered Clouds
2:00 AM 55.4 °F 46.4 °F 72% 30.12 in 6.2 mi NW 5.8 mph - N/A   Partly Cloudy
2:30 AM 55.4 °F 46.4 °F 72% 30.12 in 6.2 mi NW 4.6 mph - N/A   Partly Cloudy
3:00 AM 55.4 °F 44.6 °F 67% 30.12 in 6.2 mi NNW 3.5 mph - N/A   Partly Cloudy
3:30 AM 55.4 °F 44.6 °F 67% 30.09 in 6.2 mi NW 4.6 mph - N/A   Partly Cloudy
4:00 AM 55.4 °F 46.4 °F 72% 30.09 in 6.2 mi NW 5.8 mph - N/A   Partly Cloudy
4:30 AM 55.4 °F 46.4 °F 72% 30.09 in 6.2 mi NW 5.8 mph - N/A   Partly Cloudy
5:00 AM 55.4 °F 46.4 °F 72% 30.09 in 6.2 mi NW 5.8 mph - N/A   Partly Cloudy
5:30 AM 55.4 °F 46.4 °F 72% 30.12 in 6.2 mi NW 8.1 mph - N/A   Partly Cloudy
6:00 AM 55.4 °F 46.4 °F 72% 30.12 in 6.2 mi NW 9.2 mph - N/A   Partly Cloudy
6:30 AM 53.6 °F 46.4 °F 77% 30.12 in 6.2 mi NNW 8.1 mph - N/A   Partly Cloudy
7:00 AM 53.6 °F 44.6 °F 72% 30.12 in 6.2 mi NW 8.1 mph - N/A   Partly Cloudy
7:30 AM 53.6 °F 44.6 °F 72% 30.12 in 6.2 mi NW 10.4 mph - N/A   Partly Cloudy
8:00 AM 54 °F 44 °F 58% 30.17 in 9 mi North 8.1 mph - -   Scattered Clouds
8:00 AM 53.6 °F 44.6 °F 72% 30.15 in 6.2 mi NW 8.1 mph - N/A   Partly Cloudy
8:30 AM 53.6 °F 44.6 °F 72% 30.15 in 6.2 mi NW 8.1 mph 21.9 mph N/A   Partly Cloudy
9:00 AM 55.4 °F 42.8 °F 63% 30.18 in - NW 9.2 mph - N/A   Clear
9:30 AM 57.2 °F 42.8 °F 59% 30.18 in - NW 10.4 mph - N/A   Clear
10:00 AM 59.0 °F 42.8 °F 55% 30.18 in - NNW 8.1 mph - N/A   Clear
10:30 AM 60.8 °F 42.8 °F 52% 30.18 in - NNW 4.6 mph - N/A   Clear
11:00 AM 62.6 °F 42.8 °F 48% 30.21 in - ENE 11.5 mph - N/A   Clear
11:30 AM 62.6 °F 44.6 °F 52% 30.21 in - East 10.4 mph - N/A   Clear
12:00 PM 62.6 °F 44.6 °F 52% 30.21 in 6.2 mi East 10.4 mph - N/A   Partly Cloudy
12:30 PM 62.6 °F 44.6 °F 52% 30.21 in 6.2 mi East 11.5 mph - N/A   Partly Cloudy
1:00 PM 62.6 °F 46.4 °F 55% 30.21 in 6.2 mi ESE 10.4 mph - N/A   Partly Cloudy
1:30 PM 62.6 °F 50.0 °F 63% 30.21 in 6.2 mi ESE 9.2 mph - N/A   Partly Cloudy
2:00 PM 63 °F 50 °F 52% 30.22 in 11 mi SSE 9.2 mph - -   Scattered Clouds
2:00 PM 62.6 °F 50.0 °F 63% 30.21 in 6.2 mi SE 10.4 mph - N/A   Partly Cloudy
2:30 PM 62.6 °F 50.0 °F 63% 30.18 in 6.2 mi SSE 9.2 mph - N/A   Partly Cloudy
3:00 PM 62.6 °F 50.0 °F 63% 30.21 in 6.2 mi SSE 9.2 mph - N/A   Partly Cloudy
3:30 PM 62.6 °F 51.8 °F 68% 30.21 in 6.2 mi SSE 10.4 mph - N/A   Partly Cloudy
4:00 PM 62.6 °F 48.2 °F 59% 30.21 in 6.2 mi South 10.4 mph - N/A   Partly Cloudy
4:30 PM 62.6 °F 50.0 °F 63% 30.21 in 6.2 mi SE 9.2 mph - N/A   Partly Cloudy
5:00 PM 62.6 °F 50.0 °F 63% 30.18 in 6.2 mi SE 9.2 mph - N/A   Partly Cloudy
5:30 PM 62.6 °F 48.2 °F 59% 30.18 in 6.2 mi ESE 10.4 mph - N/A   Partly Cloudy
6:00 PM 62.6 °F 44.6 °F 52% 30.18 in 6.2 mi ESE 9.2 mph - N/A   Partly Cloudy
6:30 PM 62.6 °F 44.6 °F 52% 30.18 in 6.2 mi ESE 8.1 mph - N/A   Partly Cloudy
7:00 PM 62.6 °F 44.6 °F 52% 30.18 in 6.2 mi ESE 6.9 mph - N/A   Partly Cloudy
7:30 PM 62.6 °F 44.6 °F 52% 30.21 in 6.2 mi ESE 5.8 mph - N/A   Partly Cloudy
8:00 PM 62 °F 45 °F 43% 30.22 in 19 mi ESE 5.8 mph - -   Scattered Clouds
8:00 PM 60.8 °F 44.6 °F 55% 30.21 in 6.2 mi SE 4.6 mph - N/A   Partly Cloudy
8:30 PM 60.8 °F 46.4 °F 59% 30.21 in 6.2 mi Variable 2.3 mph - N/A   Partly Cloudy
9:00 PM 60.8 °F 44.6 °F 55% 30.21 in 6.2 mi East 2.3 mph - N/A   Partly Cloudy
9:30 PM 60.8 °F 46.4 °F 59% 30.24 in 6.2 mi Variable 2.3 mph - N/A   Partly Cloudy
10:00 PM 60.8 °F 46.4 °F 59% 30.24 in 6.2 mi NNE 3.5 mph - N/A   Partly Cloudy
10:30 PM 59.0 °F 46.4 °F 63% 30.24 in 6.2 mi Variable 2.3 mph - N/A   Partly Cloudy
11:00 PM 59.0 °F 44.6 °F 59% 30.24 in 6.2 mi NE 3.5 mph - N/A   Partly Cloudy
11:30 PM 57.2 °F 42.8 °F 59% 30.24 in 6.2 mi North 3.5 mph - N/A   Partly Cloudy